Zurück zum Katalog

QIANFAN-95

AktivKommunikationPO
NORAD 66037·PAYLOAD·🇨🇳 China

Gestartet Oct 17, 2025 von Taiyuan Satellite Launch Center

Loading…

Nächste Überflüge (nächste 24 Stunden)

TLE

AktuellSource: Space-Track

Epoche: Sep 14, 2026, 09:22 UTC

1 66037U 25233E   26257.39068521  .00000064  00000-0  80525-4 0  9997
2 66037  89.0051  33.6435 0001713  92.4611 267.6737 13.51021678 45524

Verfolge QIANFAN-95 in Echtzeit mit AllMySat

Download on the App Store